PWSweather.com
Personal Weather Stations
Station Observations
UGLTEWKE1
3 Beckford Close, BeckfordGB GL20 7

3 Beckford CloseBeckfordGB GL20 7

Lat: 52.01582, Lon: -2.037782

Elevation: 112

Station Type: Davis Vantage Pro2

http://www.theshieling.net/weatherdavis.php

High Low Average
Temperature 48.6°F9.2°C 28.6°F-1.9°C 36.9°F2.7°C
Dew Point 37.9°F3.3°C 26.2°F-3.2°C 33.1°F0.6°C
Winds 8.0 mph 12.9 kmh Calm Calm 1.0 mph NW1.6 kmh NW
Wind Gusts 14.0 mph22.5 kmh -- 2.0 mph3.2 kmh
Humidity 93% 61% 86%
Pressure 29.57 in1001.4 mb 29.36 in994.2 mb -
Precipitation 0.21 in5.3 mm - -
Hour Temp Dew Point Humidity Winds Wind Gusts Pressure Precip Precip Rate Daily Precip Total
12:00 AM 33.6°F0.9°C 30.7°F-0.7°C 89% Calm Calm -- 29.57 in1001.4 mb 0.00 in0.0 mm 0.00 in0.0 mm 0.00 in0.0 mm
12:05 AM 33.3°F0.7°C 30.4°F-0.9°C 89% Calm Calm -- 29.57 in1001.4 mb 0.00 in0.0 mm 0.00 in0.0 mm 0.00 in0.0 mm
12:10 AM 33.1°F0.6°C 30.2°F-1.0°C 89% Calm Calm -- 29.57 in1001.4 mb 0.00 in0.0 mm 0.00 in0.0 mm 0.00 in0.0 mm
12:15 AM 32.9°F0.5°C 30.0°F-1.1°C 89% Calm Calm -- 29.57 in1001.4 mb 0.00 in0.0 mm 0.00 in0.0 mm 0.00 in0.0 mm
12:20 AM 32.7°F0.4°C 29.8°F-1.2°C 89% Calm Calm -- 29.57 in1001.4 mb 0.00 in0.0 mm 0.00 in0.0 mm 0.00 in0.0 mm
12:25 AM 32.9°F0.5°C 30.2°F-1.0°C 90% Calm Calm -- 29.57 in1001.4 mb 0.00 in0.0 mm 0.00 in0.0 mm 0.00 in0.0 mm
12:30 AM 32.7°F0.4°C 30.2°F-1.0°C 90% Calm Calm -- 29.57 in1001.4 mb 0.00 in0.0 mm 0.00 in0.0 mm 0.00 in0.0 mm
12:35 AM 32.5°F0.3°C 29.7°F-1.3°C 89% Calm Calm -- 29.57 in1001.4 mb 0.00 in0.0 mm 0.00 in0.0 mm 0.00 in0.0 mm
12:40 AM 32.4°F0.2°C 29.5°F-1.4°C 89% Calm Calm -- 29.57 in1001.4 mb 0.00 in0.0 mm 0.00 in0.0 mm 0.00 in0.0 mm
12:45 AM 32.2°F0.1°C 29.3°F-1.5°C 89% Calm Calm -- 29.57 in1001.4 mb 0.00 in0.0 mm 0.00 in0.0 mm 0.00 in0.0 mm
12:50 AM 31.6°F-0.2°C 28.8°F-1.8°C 89% Calm Calm -- 29.57 in1001.4 mb 0.00 in0.0 mm 0.00 in0.0 mm 0.00 in0.0 mm
12:55 AM 31.5°F-0.3°C 28.6°F-1.9°C 89% Calm Calm -- 29.56 in1001.0 mb 0.00 in0.0 mm 0.00 in0.0 mm 0.00 in0.0 mm
01:00 AM 31.3°F-0.4°C 28.4°F-2.0°C 89% Calm Calm -- 29.56 in1001.0 mb 0.00 in0.0 mm 0.00 in0.0 mm 0.00 in0.0 mm
01:05 AM 31.3°F-0.4°C 28.4°F-2.0°C 89% Calm Calm -- 29.57 in1001.4 mb 0.00 in0.0 mm 0.00 in0.0 mm 0.00 in0.0 mm
01:10 AM 31.1°F-0.5°C 28.2°F-2.1°C 89% Calm Calm -- 29.57 in1001.4 mb 0.00 in0.0 mm 0.00 in0.0 mm 0.00 in0.0 mm
01:15 AM 31.1°F-0.5°C 28.6°F-1.9°C 90% Calm Calm -- 29.57 in1001.4 mb 0.00 in0.0 mm 0.00 in0.0 mm 0.00 in0.0 mm
01:20 AM 30.9°F-0.6°C 28.4°F-2.0°C 90% Calm Calm -- 29.57 in1001.4 mb 0.00 in0.0 mm 0.00 in0.0 mm 0.00 in0.0 mm
01:25 AM 30.9°F-0.6°C 28.4°F-2.0°C 90% Calm Calm -- 29.56 in1001.0 mb 0.00 in0.0 mm 0.00 in0.0 mm 0.00 in0.0 mm
01:30 AM 30.9°F-0.6°C 28.4°F-2.0°C 90% Calm Calm -- 29.56 in1001.0 mb 0.00 in0.0 mm 0.00 in0.0 mm 0.00 in0.0 mm
01:35 AM 30.9°F-0.6°C 28.4°F-2.0°C 90% Calm Calm -- 29.56 in1001.0 mb 0.00 in0.0 mm 0.00 in0.0 mm 0.00 in0.0 mm
01:40 AM 31.1°F-0.5°C 28.8°F-1.8°C 91% Calm Calm -- 29.56 in1001.0 mb 0.00 in0.0 mm 0.00 in0.0 mm 0.00 in0.0 mm
01:45 AM 31.3°F-0.4°C 28.9°F-1.7°C 91% Calm Calm -- 29.56 in1001.0 mb 0.00 in0.0 mm 0.00 in0.0 mm 0.00 in0.0 mm
01:50 AM 31.3°F-0.4°C 28.9°F-1.7°C 91% Calm Calm -- 29.56 in1001.0 mb 0.00 in0.0 mm 0.00 in0.0 mm 0.00 in0.0 mm
01:55 AM 31.1°F-0.5°C 28.6°F-1.9°C 90% Calm Calm -- 29.56 in1001.0 mb 0.00 in0.0 mm 0.00 in0.0 mm 0.00 in0.0 mm
02:00 AM 30.9°F-0.6°C 28.4°F-2.0°C 90% Calm Calm -- 29.56 in1001.0 mb 0.00 in0.0 mm 0.00 in0.0 mm 0.00 in0.0 mm
02:05 AM 30.9°F-0.6°C 28.6°F-1.9°C 91% Calm Calm -- 29.56 in1001.0 mb 0.00 in0.0 mm 0.00 in0.0 mm 0.00 in0.0 mm
02:10 AM 30.9°F-0.6°C 28.6°F-1.9°C 91% Calm Calm -- 29.55 in1000.7 mb 0.00 in0.0 mm 0.00 in0.0 mm 0.00 in0.0 mm
02:15 AM 30.9°F-0.6°C 28.6°F-1.9°C 91% Calm Calm -- 29.55 in1000.7 mb 0.00 in0.0 mm 0.00 in0.0 mm 0.00 in0.0 mm
02:20 AM 30.9°F-0.6°C 28.6°F-1.9°C 91% Calm Calm -- 29.55 in1000.7 mb 0.00 in0.0 mm 0.00 in0.0 mm 0.00 in0.0 mm
02:25 AM 30.9°F-0.6°C 28.6°F-1.9°C 91% Calm Calm -- 29.55 in1000.7 mb 0.00 in0.0 mm 0.00 in0.0 mm 0.00 in0.0 mm
02:30 AM 30.9°F-0.6°C 28.6°F-1.9°C 91% Calm Calm -- 29.55 in1000.7 mb 0.00 in0.0 mm 0.00 in0.0 mm 0.00 in0.0 mm
02:35 AM 30.7°F-0.7°C 28.4°F-2.0°C 91% Calm Calm -- 29.55 in1000.7 mb 0.00 in0.0 mm 0.00 in0.0 mm 0.00 in0.0 mm
02:40 AM 30.7°F-0.7°C 28.4°F-2.0°C 91% Calm Calm -- 29.55 in1000.7 mb 0.00 in0.0 mm 0.00 in0.0 mm 0.00 in0.0 mm
02:45 AM 30.6°F-0.8°C 28.0°F-2.2°C 90% Calm Calm -- 29.55 in1000.7 mb 0.00 in0.0 mm 0.00 in0.0 mm 0.00 in0.0 mm
02:50 AM 30.4°F-0.9°C 28.0°F-2.2°C 91% Calm Calm -- 29.55 in1000.7 mb 0.00 in0.0 mm 0.00 in0.0 mm 0.00 in0.0 mm
02:55 AM 30.2°F-1.0°C 27.9°F-2.3°C 91% Calm Calm -- 29.55 in1000.7 mb 0.00 in0.0 mm 0.00 in0.0 mm 0.00 in0.0 mm
03:00 AM 30.0°F-1.1°C 27.5°F-2.5°C 90% Calm Calm -- 29.54 in1000.3 mb 0.00 in0.0 mm 0.00 in0.0 mm 0.00 in0.0 mm
03:05 AM 29.8°F-1.2°C 27.3°F-2.6°C 90% Calm Calm -- 29.54 in1000.3 mb 0.00 in0.0 mm 0.00 in0.0 mm 0.00 in0.0 mm
03:10 AM 29.7°F-1.3°C 27.1°F-2.7°C 90% Calm Calm -- 29.54 in1000.3 mb 0.00 in0.0 mm 0.00 in0.0 mm 0.00 in0.0 mm
03:15 AM 29.5°F-1.4°C 27.0°F-2.8°C 90% Calm Calm -- 29.54 in1000.3 mb 0.00 in0.0 mm 0.00 in0.0 mm 0.00 in0.0 mm
03:20 AM 29.5°F-1.4°C 27.0°F-2.8°C 90% Calm Calm -- 29.54 in1000.3 mb 0.00 in0.0 mm 0.00 in0.0 mm 0.00 in0.0 mm
03:25 AM 29.3°F-1.5°C 27.0°F-2.8°C 91% Calm Calm -- 29.54 in1000.3 mb 0.00 in0.0 mm 0.00 in0.0 mm 0.00 in0.0 mm
03:30 AM 29.5°F-1.4°C 27.1°F-2.7°C 91% Calm Calm -- 29.54 in1000.3 mb 0.00 in0.0 mm 0.00 in0.0 mm 0.00 in0.0 mm
03:35 AM 29.3°F-1.5°C 27.0°F-2.8°C 91% Calm Calm -- 29.54 in1000.3 mb 0.00 in0.0 mm 0.00 in0.0 mm 0.00 in0.0 mm
03:40 AM 29.3°F-1.5°C 27.0°F-2.8°C 91% Calm Calm -- 29.54 in1000.3 mb 0.00 in0.0 mm 0.00 in0.0 mm 0.00 in0.0 mm
03:45 AM 29.3°F-1.5°C 27.0°F-2.8°C 91% Calm Calm -- 29.54 in1000.3 mb 0.00 in0.0 mm 0.00 in0.0 mm 0.00 in0.0 mm
03:50 AM 29.5°F-1.4°C 27.1°F-2.7°C 91% Calm Calm -- 29.54 in1000.3 mb 0.00 in0.0 mm 0.00 in0.0 mm 0.00 in0.0 mm
03:55 AM 29.5°F-1.4°C 27.1°F-2.7°C 91% Calm Calm -- 29.54 in1000.3 mb 0.00 in0.0 mm 0.00 in0.0 mm 0.00 in0.0 mm
04:00 AM 29.5°F-1.4°C 27.1°F-2.7°C 91% Calm Calm -- 29.54 in1000.3 mb 0.00 in0.0 mm 0.00 in0.0 mm 0.00 in0.0 mm
04:05 AM 29.5°F-1.4°C 27.1°F-2.7°C 91% Calm Calm -- 29.54 in1000.3 mb 0.00 in0.0 mm 0.00 in0.0 mm 0.00 in0.0 mm
04:10 AM 29.5°F-1.4°C 27.1°F-2.7°C 91% Calm Calm -- 29.54 in1000.3 mb 0.00 in0.0 mm 0.00 in0.0 mm 0.00 in0.0 mm
04:15 AM 29.3°F-1.5°C 27.0°F-2.8°C 91% Calm Calm -- 29.53 in1000.0 mb 0.00 in0.0 mm 0.00 in0.0 mm 0.00 in0.0 mm
04:20 AM 29.1°F-1.6°C 26.8°F-2.9°C 91% Calm Calm -- 29.53 in1000.0 mb 0.00 in0.0 mm 0.00 in0.0 mm 0.00 in0.0 mm
04:25 AM 29.1°F-1.6°C 26.8°F-2.9°C 91% Calm Calm -- 29.54 in1000.3 mb 0.00 in0.0 mm 0.00 in0.0 mm 0.00 in0.0 mm
04:30 AM 29.1°F-1.6°C 26.8°F-2.9°C 91% Calm Calm -- 29.54 in1000.3 mb 0.00 in0.0 mm 0.00 in0.0 mm 0.00 in0.0 mm
04:35 AM 29.1°F-1.6°C 26.8°F-2.9°C 91% Calm Calm -- 29.53 in1000.0 mb 0.00 in0.0 mm 0.00 in0.0 mm 0.00 in0.0 mm
04:40 AM 28.9°F-1.7°C 26.6°F-3.0°C 91% Calm Calm -- 29.54 in1000.3 mb 0.00 in0.0 mm 0.00 in0.0 mm 0.00 in0.0 mm
04:45 AM 28.9°F-1.7°C 26.6°F-3.0°C 91% Calm Calm -- 29.54 in1000.3 mb 0.00 in0.0 mm 0.00 in0.0 mm 0.00 in0.0 mm
04:50 AM 28.9°F-1.7°C 26.6°F-3.0°C 91% Calm Calm -- 29.54 in1000.3 mb 0.00 in0.0 mm 0.00 in0.0 mm 0.00 in0.0 mm
04:55 AM 28.9°F-1.7°C 26.6°F-3.0°C 91% Calm Calm -- 29.53 in1000.0 mb 0.00 in0.0 mm 0.00 in0.0 mm 0.00 in0.0 mm
05:00 AM 28.9°F-1.7°C 26.6°F-3.0°C 91% Calm Calm -- 29.53 in1000.0 mb 0.00 in0.0 mm 0.00 in0.0 mm 0.00 in0.0 mm
05:05 AM 28.8°F-1.8°C 26.8°F-2.9°C 92% Calm Calm -- 29.53 in1000.0 mb 0.00 in0.0 mm 0.00 in0.0 mm 0.00 in0.0 mm
05:10 AM 28.8°F-1.8°C 26.8°F-2.9°C 92% Calm Calm -- 29.53 in1000.0 mb 0.00 in0.0 mm 0.00 in0.0 mm 0.00 in0.0 mm
05:15 AM 28.8°F-1.8°C 26.4°F-3.1°C 91% Calm Calm -- 29.54 in1000.3 mb 0.00 in0.0 mm 0.00 in0.0 mm 0.00 in0.0 mm
05:20 AM 28.6°F-1.9°C 26.2°F-3.2°C 91% Calm Calm -- 29.54 in1000.3 mb 0.00 in0.0 mm 0.00 in0.0 mm 0.00 in0.0 mm
05:25 AM 28.6°F-1.9°C 26.2°F-3.2°C 91% Calm Calm -- 29.54 in1000.3 mb 0.00 in0.0 mm 0.00 in0.0 mm 0.00 in0.0 mm
05:30 AM 28.8°F-1.8°C 26.8°F-2.9°C 92% Calm Calm -- 29.54 in1000.3 mb 0.00 in0.0 mm 0.00 in0.0 mm 0.00 in0.0 mm
05:35 AM 28.9°F-1.7°C 27.0°F-2.8°C 92% Calm Calm -- 29.54 in1000.3 mb 0.00 in0.0 mm 0.00 in0.0 mm 0.00 in0.0 mm
05:40 AM 29.1°F-1.6°C 27.1°F-2.7°C 92% Calm Calm -- 29.54 in1000.3 mb 0.00 in0.0 mm 0.00 in0.0 mm 0.00 in0.0 mm
05:45 AM 29.5°F-1.4°C 27.5°F-2.5°C 92% Calm Calm -- 29.54 in1000.3 mb 0.00 in0.0 mm 0.00 in0.0 mm 0.00 in0.0 mm
05:50 AM 29.7°F-1.3°C 27.7°F-2.4°C 92% Calm Calm -- 29.54 in1000.3 mb 0.00 in0.0 mm 0.00 in0.0 mm 0.00 in0.0 mm
05:55 AM 29.7°F-1.3°C 27.7°F-2.4°C 92% Calm Calm -- 29.54 in1000.3 mb 0.00 in0.0 mm 0.00 in0.0 mm 0.00 in0.0 mm
06:00 AM 29.7°F-1.3°C 27.7°F-2.4°C 92% Calm Calm -- 29.54 in1000.3 mb 0.00 in0.0 mm 0.00 in0.0 mm 0.00 in0.0 mm
06:05 AM 29.8°F-1.2°C 27.9°F-2.3°C 92% Calm Calm -- 29.54 in1000.3 mb 0.00 in0.0 mm 0.00 in0.0 mm 0.00 in0.0 mm
06:10 AM 29.8°F-1.2°C 27.9°F-2.3°C 92% Calm Calm -- 29.53 in1000.0 mb 0.00 in0.0 mm 0.00 in0.0 mm 0.00 in0.0 mm
06:15 AM 30.0°F-1.1°C 28.0°F-2.2°C 92% Calm Calm -- 29.53 in1000.0 mb 0.00 in0.0 mm 0.00 in0.0 mm 0.00 in0.0 mm
06:20 AM 30.0°F-1.1°C 28.0°F-2.2°C 92% Calm Calm -- 29.54 in1000.3 mb 0.00 in0.0 mm 0.00 in0.0 mm 0.00 in0.0 mm
06:25 AM 30.4°F-0.9°C 28.4°F-2.0°C 92% Calm Calm -- 29.53 in1000.0 mb 0.00 in0.0 mm 0.00 in0.0 mm 0.00 in0.0 mm
06:30 AM 30.7°F-0.7°C 28.8°F-1.8°C 92% Calm Calm -- 29.53 in1000.0 mb 0.00 in0.0 mm 0.00 in0.0 mm 0.00 in0.0 mm
06:35 AM 31.1°F-0.5°C 29.3°F-1.5°C 93% Calm Calm -- 29.53 in1000.0 mb 0.00 in0.0 mm 0.00 in0.0 mm 0.00 in0.0 mm
06:40 AM 31.3°F-0.4°C 29.5°F-1.4°C 93% Calm Calm -- 29.53 in1000.0 mb 0.00 in0.0 mm 0.00 in0.0 mm 0.00 in0.0 mm
06:45 AM 31.6°F-0.2°C 29.7°F-1.3°C 92% Calm Calm -- 29.53 in1000.0 mb 0.00 in0.0 mm 0.00 in0.0 mm 0.00 in0.0 mm
06:50 AM 31.6°F-0.2°C 29.7°F-1.3°C 92% Calm Calm -- 29.53 in1000.0 mb 0.00 in0.0 mm 0.00 in0.0 mm 0.00 in0.0 mm
06:55 AM 31.8°F-0.1°C 29.8°F-1.2°C 92% Calm Calm -- 29.53 in1000.0 mb 0.00 in0.0 mm 0.00 in0.0 mm 0.00 in0.0 mm
07:00 AM 31.8°F-0.1°C 29.8°F-1.2°C 92% Calm Calm -- 29.53 in1000.0 mb 0.00 in0.0 mm 0.00 in0.0 mm 0.00 in0.0 mm
07:05 AM 32.2°F0.1°C 30.2°F-1.0°C 92% Calm Calm -- 29.54 in1000.3 mb 0.00 in0.0 mm 0.00 in0.0 mm 0.00 in0.0 mm
07:10 AM 32.5°F0.3°C 30.6°F-0.8°C 92% Calm Calm -- 29.54 in1000.3 mb 0.00 in0.0 mm 0.00 in0.0 mm 0.00 in0.0 mm
07:15 AM 32.9°F0.5°C 31.1°F-0.5°C 93% Calm Calm -- 29.53 in1000.0 mb 0.00 in0.0 mm 0.00 in0.0 mm 0.00 in0.0 mm
07:20 AM 33.3°F0.7°C 31.5°F-0.3°C 93% Calm Calm -- 29.53 in1000.0 mb 0.00 in0.0 mm 0.00 in0.0 mm 0.00 in0.0 mm
07:25 AM 33.4°F0.8°C 31.3°F-0.4°C 92% Calm Calm -- 29.53 in1000.0 mb 0.00 in0.0 mm 0.00 in0.0 mm 0.00 in0.0 mm
07:30 AM 33.4°F0.8°C 31.3°F-0.4°C 92% Calm Calm -- 29.53 in1000.0 mb 0.00 in0.0 mm 0.00 in0.0 mm 0.00 in0.0 mm
07:35 AM 33.6°F0.9°C 31.5°F-0.3°C 92% Calm Calm -- 29.53 in1000.0 mb 0.00 in0.0 mm 0.00 in0.0 mm 0.00 in0.0 mm
07:40 AM 33.8°F1.0°C 31.6°F-0.2°C 92% Calm Calm -- 29.53 in1000.0 mb 0.00 in0.0 mm 0.00 in0.0 mm 0.00 in0.0 mm
07:45 AM 34.2°F1.2°C 32.0°F0.0°C 92% Calm Calm -- 29.53 in1000.0 mb 0.00 in0.0 mm 0.00 in0.0 mm 0.00 in0.0 mm
07:50 AM 34.7°F1.5°C 32.5°F0.3°C 92% Calm Calm 2.0 mph3.2 kmh 29.53 in1000.0 mb 0.00 in0.0 mm 0.00 in0.0 mm 0.00 in0.0 mm
07:55 AM 35.2°F1.8°C 33.1°F0.6°C 92% Calm Calm 2.0 mph3.2 kmh 29.53 in1000.0 mb 0.00 in0.0 mm 0.00 in0.0 mm 0.00 in0.0 mm
08:00 AM 35.4°F1.9°C 33.3°F0.7°C 92% Calm Calm -- 29.53 in1000.0 mb 0.00 in0.0 mm 0.00 in0.0 mm 0.00 in0.0 mm
08:05 AM 36.1°F2.3°C 34.0°F1.1°C 92% 2.0 mph WSW3.2 kmh WSW 7.0 mph11.3 kmh 29.54 in1000.3 mb 0.00 in0.0 mm 0.00 in0.0 mm 0.00 in0.0 mm
08:10 AM 36.3°F2.4°C 34.0°F1.1°C 91% 3.0 mph WNW4.8 kmh WNW 6.0 mph9.7 kmh 29.54 in1000.3 mb 0.00 in0.0 mm 0.00 in0.0 mm 0.00 in0.0 mm
08:15 AM 36.3°F2.4°C 33.6°F0.9°C 90% 2.0 mph WSW3.2 kmh WSW 6.0 mph9.7 kmh 29.53 in1000.0 mb 0.00 in0.0 mm 0.00 in0.0 mm 0.00 in0.0 mm
08:20 AM 37.0°F2.8°C 34.7°F1.5°C 91% 2.0 mph W3.2 kmh W 7.0 mph11.3 kmh 29.54 in1000.3 mb 0.00 in0.0 mm 0.00 in0.0 mm 0.00 in0.0 mm
08:25 AM 37.0°F2.8°C 34.3°F1.3°C 90% 3.0 mph W4.8 kmh W 8.0 mph12.9 kmh 29.54 in1000.3 mb 0.00 in0.0 mm 0.00 in0.0 mm 0.00 in0.0 mm
08:30 AM 37.0°F2.8°C 34.2°F1.2°C 89% 2.0 mph WSW3.2 kmh WSW 7.0 mph11.3 kmh 29.54 in1000.3 mb 0.00 in0.0 mm 0.00 in0.0 mm 0.00 in0.0 mm
08:35 AM 36.9°F2.7°C 34.0°F1.1°C 89% 1.0 mph WSW1.6 kmh WSW 5.0 mph8.0 kmh 29.54 in1000.3 mb 0.00 in0.0 mm 0.00 in0.0 mm 0.00 in0.0 mm
08:40 AM 37.4°F3.0°C 34.5°F1.4°C 89% 1.0 mph SSW1.6 kmh SSW 5.0 mph8.0 kmh 29.53 in1000.0 mb 0.00 in0.0 mm 0.00 in0.0 mm 0.00 in0.0 mm
08:45 AM 37.8°F3.2°C 34.9°F1.6°C 89% 1.0 mph SW1.6 kmh SW 6.0 mph9.7 kmh 29.53 in1000.0 mb 0.00 in0.0 mm 0.00 in0.0 mm 0.00 in0.0 mm
08:50 AM 38.1°F3.4°C 34.9°F1.6°C 88% 2.0 mph SW3.2 kmh SW 5.0 mph8.0 kmh 29.53 in1000.0 mb 0.00 in0.0 mm 0.00 in0.0 mm 0.00 in0.0 mm
08:55 AM 38.5°F3.6°C 34.9°F1.6°C 87% 2.0 mph SW3.2 kmh SW 6.0 mph9.7 kmh 29.53 in1000.0 mb 0.00 in0.0 mm 0.00 in0.0 mm 0.00 in0.0 mm
09:00 AM 38.5°F3.6°C 34.9°F1.6°C 87% Calm Calm 4.0 mph6.4 kmh 29.53 in1000.0 mb 0.00 in0.0 mm 0.00 in0.0 mm 0.00 in0.0 mm
09:05 AM 38.7°F3.7°C 35.1°F1.7°C 87% 1.0 mph WSW1.6 kmh WSW 6.0 mph9.7 kmh 29.53 in1000.0 mb 0.00 in0.0 mm 0.00 in0.0 mm 0.00 in0.0 mm
09:10 AM 39.0°F3.9°C 35.2°F1.8°C 86% 1.0 mph SSW1.6 kmh SSW 6.0 mph9.7 kmh 29.53 in1000.0 mb 0.00 in0.0 mm 0.00 in0.0 mm 0.00 in0.0 mm
09:15 AM 39.4°F4.1°C 35.6°F2.0°C 86% 1.0 mph SW1.6 kmh SW 5.0 mph8.0 kmh 29.53 in1000.0 mb 0.00 in0.0 mm 0.00 in0.0 mm 0.00 in0.0 mm
09:20 AM 39.4°F4.1°C 34.9°F1.6°C 84% 1.0 mph WSW1.6 kmh WSW 4.0 mph6.4 kmh 29.53 in1000.0 mb 0.00 in0.0 mm 0.00 in0.0 mm 0.00 in0.0 mm
09:25 AM 39.4°F4.1°C 34.9°F1.6°C 84% Calm Calm 3.0 mph4.8 kmh 29.53 in1000.0 mb 0.00 in0.0 mm 0.00 in0.0 mm 0.00 in0.0 mm
09:30 AM 39.6°F4.2°C 34.9°F1.6°C 83% Calm Calm 3.0 mph4.8 kmh 29.53 in1000.0 mb 0.00 in0.0 mm 0.00 in0.0 mm 0.00 in0.0 mm
09:35 AM 39.7°F4.3°C 35.1°F1.7°C 83% Calm Calm 2.0 mph3.2 kmh 29.53 in1000.0 mb 0.00 in0.0 mm 0.00 in0.0 mm 0.00 in0.0 mm
09:40 AM 40.5°F4.7°C 35.4°F1.9°C 82% Calm Calm 2.0 mph3.2 kmh 29.52 in999.7 mb 0.00 in0.0 mm 0.00 in0.0 mm 0.00 in0.0 mm
09:45 AM 41.2°F5.1°C 36.1°F2.3°C 82% Calm Calm 4.0 mph6.4 kmh 29.53 in1000.0 mb 0.00 in0.0 mm 0.00 in0.0 mm 0.00 in0.0 mm
09:50 AM 41.4°F5.2°C 36.0°F2.2°C 81% 1.0 mph W1.6 kmh W 4.0 mph6.4 kmh 29.53 in1000.0 mb 0.00 in0.0 mm 0.00 in0.0 mm 0.00 in0.0 mm
09:55 AM 41.5°F5.3°C 35.6°F2.0°C 79% Calm Calm -- 29.52 in999.7 mb 0.00 in0.0 mm 0.00 in0.0 mm 0.00 in0.0 mm
10:00 AM 42.3°F5.7°C 36.1°F2.3°C 79% 1.0 mph SSW1.6 kmh SSW 6.0 mph9.7 kmh 29.52 in999.7 mb 0.00 in0.0 mm 0.00 in0.0 mm 0.00 in0.0 mm
10:05 AM 43.0°F6.1°C 36.9°F2.7°C 79% 1.0 mph SW1.6 kmh SW 4.0 mph6.4 kmh 29.52 in999.7 mb 0.00 in0.0 mm 0.00 in0.0 mm 0.00 in0.0 mm
10:10 AM 42.4°F5.8°C 36.3°F2.4°C 79% Calm Calm 3.0 mph4.8 kmh 29.52 in999.7 mb 0.00 in0.0 mm 0.00 in0.0 mm 0.00 in0.0 mm
10:15 AM 42.6°F5.9°C 36.3°F2.4°C 78% Calm Calm 3.0 mph4.8 kmh 29.52 in999.7 mb 0.00 in0.0 mm 0.00 in0.0 mm 0.00 in0.0 mm
10:20 AM 42.4°F5.8°C 36.1°F2.3°C 78% Calm Calm 3.0 mph4.8 kmh 29.52 in999.7 mb 0.00 in0.0 mm 0.00 in0.0 mm 0.00 in0.0 mm
10:25 AM 42.8°F6.0°C 35.8°F2.1°C 76% 1.0 mph SSW1.6 kmh SSW 5.0 mph8.0 kmh 29.52 in999.7 mb 0.00 in0.0 mm 0.00 in0.0 mm 0.00 in0.0 mm
10:30 AM 43.3°F6.3°C 36.7°F2.6°C 77% Calm Calm 3.0 mph4.8 kmh 29.51 in999.3 mb 0.00 in0.0 mm 0.00 in0.0 mm 0.00 in0.0 mm
10:35 AM 44.1°F6.7°C 36.7°F2.6°C 75% 1.0 mph SW1.6 kmh SW 5.0 mph8.0 kmh 29.51 in999.3 mb 0.00 in0.0 mm 0.00 in0.0 mm 0.00 in0.0 mm
10:40 AM 44.2°F6.8°C 36.9°F2.7°C 75% 1.0 mph S1.6 kmh S 4.0 mph6.4 kmh 29.51 in999.3 mb 0.00 in0.0 mm 0.00 in0.0 mm 0.00 in0.0 mm
10:45 AM 44.8°F7.1°C 36.7°F2.6°C 73% 3.0 mph SW4.8 kmh SW 6.0 mph9.7 kmh 29.51 in999.3 mb 0.00 in0.0 mm 0.00 in0.0 mm 0.00 in0.0 mm
10:50 AM 44.2°F6.8°C 34.7°F1.5°C 69% Calm Calm 4.0 mph6.4 kmh 29.51 in999.3 mb 0.00 in0.0 mm 0.00 in0.0 mm 0.00 in0.0 mm
10:55 AM 43.7°F6.5°C 34.9°F1.6°C 71% Calm Calm -- 29.51 in999.3 mb 0.00 in0.0 mm 0.00 in0.0 mm 0.00 in0.0 mm
11:00 AM 43.5°F6.4°C 35.1°F1.7°C 72% 1.0 mph S1.6 kmh S 4.0 mph6.4 kmh 29.51 in999.3 mb 0.00 in0.0 mm 0.00 in0.0 mm 0.00 in0.0 mm
11:05 AM 43.3°F6.3°C 35.2°F1.8°C 73% 1.0 mph SW1.6 kmh SW 6.0 mph9.7 kmh 29.50 in999.0 mb 0.00 in0.0 mm 0.00 in0.0 mm 0.00 in0.0 mm
11:10 AM 45.0°F7.2°C 37.6°F3.1°C 75% 1.0 mph WSW1.6 kmh WSW 7.0 mph11.3 kmh 29.50 in999.0 mb 0.00 in0.0 mm 0.00 in0.0 mm 0.00 in0.0 mm
11:15 AM 46.4°F8.0°C 37.9°F3.3°C 72% 3.0 mph S4.8 kmh S 8.0 mph12.9 kmh 29.50 in999.0 mb 0.00 in0.0 mm 0.00 in0.0 mm 0.00 in0.0 mm
11:20 AM 46.9°F8.3°C 37.6°F3.1°C 70% 2.0 mph SSW3.2 kmh SSW 8.0 mph12.9 kmh 29.50 in999.0 mb 0.00 in0.0 mm 0.00 in0.0 mm 0.00 in0.0 mm
11:25 AM 47.1°F8.4°C 36.0°F2.2°C 65% Calm Calm 4.0 mph6.4 kmh 29.49 in998.6 mb 0.00 in0.0 mm 0.00 in0.0 mm 0.00 in0.0 mm
11:30 AM 47.7°F8.7°C 35.2°F1.8°C 62% 1.0 mph SSW1.6 kmh SSW 6.0 mph9.7 kmh 29.49 in998.6 mb 0.00 in0.0 mm 0.00 in0.0 mm 0.00 in0.0 mm
11:35 AM 47.8°F8.8°C 37.0°F2.8°C 66% 1.0 mph S1.6 kmh S 5.0 mph8.0 kmh 29.49 in998.6 mb 0.00 in0.0 mm 0.00 in0.0 mm 0.00 in0.0 mm
11:40 AM 48.6°F9.2°C 35.8°F2.1°C 61% 1.0 mph S1.6 kmh S 5.0 mph8.0 kmh 29.49 in998.6 mb 0.00 in0.0 mm 0.00 in0.0 mm 0.00 in0.0 mm
11:45 AM 47.8°F8.8°C 37.8°F3.2°C 68% 2.0 mph SW3.2 kmh SW 6.0 mph9.7 kmh 29.49 in998.6 mb 0.00 in0.0 mm 0.00 in0.0 mm 0.00 in0.0 mm
11:50 AM 47.3°F8.5°C 36.1°F2.3°C 65% 5.0 mph SSW8.0 kmh SSW 10.0 mph16.1 kmh 29.49 in998.6 mb 0.00 in0.0 mm 0.00 in0.0 mm 0.00 in0.0 mm
11:55 AM 45.9°F7.7°C 36.0°F2.2°C 68% 5.0 mph SW8.0 kmh SW 11.0 mph17.7 kmh 29.49 in998.6 mb 0.00 in0.0 mm 0.00 in0.0 mm 0.00 in0.0 mm
12:00 PM 45.0°F7.2°C 35.1°F1.7°C 68% 4.0 mph SW6.4 kmh SW 9.0 mph14.5 kmh 29.49 in998.6 mb 0.00 in0.0 mm 0.00 in0.0 mm 0.00 in0.0 mm
12:05 PM 44.2°F6.8°C 34.0°F1.1°C 67% 5.0 mph WSW8.0 kmh WSW 13.0 mph20.9 kmh 29.49 in998.6 mb 0.00 in0.0 mm 0.00 in0.0 mm 0.00 in0.0 mm
12:10 PM 42.6°F5.9°C 34.9°F1.6°C 74% 8.0 mph WNW12.9 kmh WNW 14.0 mph22.5 kmh 29.49 in998.6 mb 0.00 in0.0 mm 0.00 in0.0 mm 0.00 in0.0 mm
12:15 PM 40.8°F4.9°C 34.5°F1.4°C 78% 8.0 mph WNW12.9 kmh WNW 14.0 mph22.5 kmh 29.50 in999.0 mb 0.01 in0.3 mm 0.09 in2.3 mm 0.01 in0.3 mm
12:20 PM 39.2°F4.0°C 33.8°F1.0°C 81% 5.0 mph WNW8.0 kmh WNW 11.0 mph17.7 kmh 29.50 in999.0 mb 0.02 in0.5 mm 0.09 in2.3 mm 0.02 in0.5 mm
12:25 PM 38.3°F3.5°C 33.6°F0.9°C 83% 4.0 mph NW6.4 kmh NW 10.0 mph16.1 kmh 29.50 in999.0 mb 0.03 in0.8 mm 0.19 in4.8 mm 0.03 in0.8 mm
12:30 PM 37.9°F3.3°C 33.8°F1.0°C 85% 4.0 mph NW6.4 kmh NW 8.0 mph12.9 kmh 29.50 in999.0 mb 0.05 in1.3 mm 0.19 in4.8 mm 0.05 in1.3 mm
12:35 PM 37.6°F3.1°C 33.8°F1.0°C 86% 3.0 mph NW4.8 kmh NW 5.0 mph8.0 kmh 29.49 in998.6 mb 0.06 in1.5 mm 0.09 in2.3 mm 0.06 in1.5 mm
12:40 PM 37.6°F3.1°C 34.0°F1.1°C 87% 2.0 mph NW3.2 kmh NW 10.0 mph16.1 kmh 29.49 in998.6 mb 0.06 in1.5 mm 0.09 in2.3 mm 0.06 in1.5 mm
12:45 PM 37.6°F3.1°C 34.0°F1.1°C 87% 1.0 mph NNW1.6 kmh NNW 5.0 mph8.0 kmh 29.49 in998.6 mb 0.07 in1.8 mm 0.09 in2.3 mm 0.07 in1.8 mm
12:50 PM 37.4°F3.0°C 33.8°F1.0°C 87% 4.0 mph NW6.4 kmh NW 8.0 mph12.9 kmh 29.49 in998.6 mb 0.08 in2.0 mm 0.09 in2.3 mm 0.08 in2.0 mm
12:55 PM 37.2°F2.9°C 33.6°F0.9°C 87% 4.0 mph NW6.4 kmh NW 9.0 mph14.5 kmh 29.49 in998.6 mb 0.09 in2.3 mm 0.09 in2.3 mm 0.09 in2.3 mm
01:00 PM 37.2°F2.9°C 33.6°F0.9°C 87% 3.0 mph NW4.8 kmh NW 5.0 mph8.0 kmh 29.49 in998.6 mb 0.09 in2.3 mm 0.01 in0.3 mm 0.09 in2.3 mm
01:05 PM 37.0°F2.8°C 33.8°F1.0°C 88% 2.0 mph NW3.2 kmh NW 8.0 mph12.9 kmh 29.49 in998.6 mb 0.10 in2.5 mm 0.09 in2.3 mm 0.10 in2.5 mm
01:10 PM 37.0°F2.8°C 33.8°F1.0°C 88% Calm Calm 3.0 mph4.8 kmh 29.49 in998.6 mb 0.13 in3.3 mm 0.28 in7.1 mm 0.13 in3.3 mm
01:15 PM 36.9°F2.7°C 33.6°F0.9°C 88% Calm Calm -- 29.49 in998.6 mb 0.13 in3.3 mm 0.00 in0.0 mm 0.13 in3.3 mm
01:20 PM 36.9°F2.7°C 33.6°F0.9°C 88% Calm Calm -- 29.49 in998.6 mb 0.13 in3.3 mm 0.00 in0.0 mm 0.14 in3.6 mm
01:25 PM 36.9°F2.7°C 33.6°F0.9°C 88% Calm Calm -- 29.49 in998.6 mb 0.13 in3.3 mm 0.00 in0.0 mm 0.16 in4.1 mm
01:30 PM 36.9°F2.7°C 33.6°F0.9°C 88% Calm Calm -- 29.49 in998.6 mb 0.13 in3.3 mm 0.00 in0.0 mm 0.17 in4.3 mm
01:35 PM 36.9°F2.7°C 34.0°F1.1°C 89% Calm Calm -- 29.49 in998.6 mb 0.13 in3.3 mm 0.09 in2.3 mm 0.19 in4.8 mm
01:40 PM 37.0°F2.8°C 34.2°F1.2°C 89% Calm Calm -- 29.49 in998.6 mb 0.13 in3.3 mm 0.00 in0.0 mm 0.20 in5.1 mm
01:45 PM 37.2°F2.9°C 34.3°F1.3°C 89% Calm Calm -- 29.49 in998.6 mb 0.13 in3.3 mm 0.00 in0.0 mm 0.20 in5.1 mm
01:50 PM 37.6°F3.1°C 34.9°F1.6°C 90% Calm Calm -- 29.48 in998.3 mb 0.13 in3.3 mm 0.00 in0.0 mm 0.20 in5.1 mm
01:55 PM 37.9°F3.3°C 35.2°F1.8°C 90% Calm Calm -- 29.48 in998.3 mb 0.12 in3.0 mm 0.00 in0.0 mm 0.20 in5.1 mm
02:00 PM 38.1°F3.4°C 35.4°F1.9°C 90% Calm Calm -- 29.48 in998.3 mb 0.11 in2.8 mm 0.00 in0.0 mm 0.20 in5.1 mm
02:05 PM 38.5°F3.6°C 35.8°F2.1°C 90% Calm Calm -- 29.48 in998.3 mb 0.11 in2.8 mm 0.00 in0.0 mm 0.21 in5.3 mm
02:10 PM 39.0°F3.9°C 36.3°F2.4°C 90% Calm Calm -- 29.48 in998.3 mb 0.09 in2.3 mm 0.00 in0.0 mm 0.21 in5.3 mm
02:15 PM 39.4°F4.1°C 36.3°F2.4°C 89% Calm Calm -- 29.48 in998.3 mb 0.08 in2.0 mm 0.00 in0.0 mm 0.21 in5.3 mm
02:20 PM 39.6°F4.2°C 36.5°F2.5°C 89% Calm Calm -- 29.48 in998.3 mb 0.07 in1.8 mm 0.00 in0.0 mm 0.21 in5.3 mm
02:25 PM 39.7°F4.3°C 36.5°F2.5°C 88% Calm Calm -- 29.48 in998.3 mb 0.06 in1.5 mm 0.00 in0.0 mm 0.21 in5.3 mm
02:30 PM 39.7°F4.3°C 36.5°F2.5°C 88% Calm Calm -- 29.47 in998.0 mb 0.04 in1.0 mm 0.00 in0.0 mm 0.21 in5.3 mm
02:35 PM 39.7°F4.3°C 36.5°F2.5°C 88% Calm Calm -- 29.47 in998.0 mb 0.02 in0.5 mm 0.00 in0.0 mm 0.21 in5.3 mm
02:40 PM 39.9°F4.4°C 36.7°F2.6°C 88% Calm Calm -- 29.47 in998.0 mb 0.02 in0.5 mm 0.00 in0.0 mm 0.21 in5.3 mm
02:45 PM 39.9°F4.4°C 36.3°F2.4°C 87% Calm Calm -- 29.47 in998.0 mb 0.01 in0.3 mm 0.00 in0.0 mm 0.21 in5.3 mm
02:50 PM 39.9°F4.4°C 36.3°F2.4°C 87% Calm Calm -- 29.47 in998.0 mb 0.01 in0.3 mm 0.00 in0.0 mm 0.21 in5.3 mm
02:55 PM 39.9°F4.4°C 36.3°F2.4°C 87% Calm Calm -- 29.47 in998.0 mb 0.01 in0.3 mm 0.00 in0.0 mm 0.21 in5.3 mm
03:00 PM 40.5°F4.7°C 36.9°F2.7°C 87% Calm Calm -- 29.47 in998.0 mb 0.01 in0.3 mm 0.00 in0.0 mm 0.21 in5.3 mm
03:05 PM 40.5°F4.7°C 36.7°F2.6°C 86% Calm Calm -- 29.47 in998.0 mb 0.00 in0.0 mm 0.00 in0.0 mm 0.21 in5.3 mm
03:10 PM 40.6°F4.8°C 37.0°F2.8°C 87% Calm Calm -- 29.47 in998.0 mb 0.00 in0.0 mm 0.00 in0.0 mm 0.21 in5.3 mm
03:15 PM 40.8°F4.9°C 36.7°F2.6°C 85% Calm Calm -- 29.46 in997.6 mb 0.00 in0.0 mm 0.00 in0.0 mm 0.21 in5.3 mm
03:20 PM 41.2°F5.1°C 37.0°F2.8°C 85% Calm Calm -- 29.46 in997.6 mb 0.00 in0.0 mm 0.00 in0.0 mm 0.21 in5.3 mm
03:25 PM 41.5°F5.3°C 37.6°F3.1°C 86% Calm Calm 1.0 mph1.6 kmh 29.46 in997.6 mb 0.00 in0.0 mm 0.00 in0.0 mm 0.21 in5.3 mm
03:30 PM 41.5°F5.3°C 37.4°F3.0°C 85% Calm Calm 2.0 mph3.2 kmh 29.46 in997.6 mb 0.00 in0.0 mm 0.00 in0.0 mm 0.21 in5.3 mm
03:35 PM 41.5°F5.3°C 37.0°F2.8°C 84% Calm Calm 3.0 mph4.8 kmh 29.46 in997.6 mb 0.00 in0.0 mm 0.00 in0.0 mm 0.21 in5.3 mm
03:40 PM 41.5°F5.3°C 36.7°F2.6°C 83% Calm Calm 3.0 mph4.8 kmh 29.46 in997.6 mb 0.00 in0.0 mm 0.00 in0.0 mm 0.21 in5.3 mm
03:45 PM 41.7°F5.4°C 37.2°F2.9°C 84% Calm Calm 3.0 mph4.8 kmh 29.46 in997.6 mb 0.00 in0.0 mm 0.00 in0.0 mm 0.21 in5.3 mm
03:50 PM 41.7°F5.4°C 36.3°F2.4°C 81% 1.0 mph SW1.6 kmh SW 3.0 mph4.8 kmh 29.45 in997.3 mb 0.00 in0.0 mm 0.00 in0.0 mm 0.21 in5.3 mm
03:55 PM 42.1°F5.6°C 37.0°F2.8°C 82% 1.0 mph WSW1.6 kmh WSW 5.0 mph8.0 kmh 29.45 in997.3 mb 0.00 in0.0 mm 0.00 in0.0 mm 0.21 in5.3 mm
04:00 PM 42.4°F5.8°C 37.4°F3.0°C 82% Calm Calm 3.0 mph4.8 kmh 29.45 in997.3 mb 0.00 in0.0 mm 0.00 in0.0 mm 0.21 in5.3 mm
04:05 PM 42.8°F6.0°C 37.8°F3.2°C 82% 2.0 mph SW3.2 kmh SW 5.0 mph8.0 kmh 29.45 in997.3 mb 0.00 in0.0 mm 0.00 in0.0 mm 0.21 in5.3 mm
04:10 PM 42.1°F5.6°C 36.7°F2.6°C 81% Calm Calm 4.0 mph6.4 kmh 29.45 in997.3 mb 0.00 in0.0 mm 0.00 in0.0 mm 0.21 in5.3 mm
04:15 PM 42.4°F5.8°C 37.0°F2.8°C 81% Calm Calm 3.0 mph4.8 kmh 29.44 in997.0 mb 0.00 in0.0 mm 0.00 in0.0 mm 0.21 in5.3 mm
04:20 PM 42.4°F5.8°C 37.0°F2.8°C 81% Calm Calm 2.0 mph3.2 kmh 29.44 in997.0 mb 0.00 in0.0 mm 0.00 in0.0 mm 0.21 in5.3 mm
04:25 PM 42.3°F5.7°C 36.5°F2.5°C 80% 1.0 mph WSW1.6 kmh WSW 5.0 mph8.0 kmh 29.44 in997.0 mb 0.00 in0.0 mm 0.00 in0.0 mm 0.21 in5.3 mm
04:30 PM 42.3°F5.7°C 36.5°F2.5°C 80% 2.0 mph WSW3.2 kmh WSW 8.0 mph12.9 kmh 29.44 in997.0 mb 0.00 in0.0 mm 0.00 in0.0 mm 0.21 in5.3 mm
04:35 PM 42.1°F5.6°C 36.7°F2.6°C 81% 2.0 mph WSW3.2 kmh WSW 4.0 mph6.4 kmh 29.44 in997.0 mb 0.00 in0.0 mm 0.00 in0.0 mm 0.21 in5.3 mm
04:40 PM 41.7°F5.4°C 36.3°F2.4°C 81% 1.0 mph SW1.6 kmh SW 4.0 mph6.4 kmh 29.44 in997.0 mb 0.00 in0.0 mm 0.00 in0.0 mm 0.21 in5.3 mm
04:45 PM 41.7°F5.4°C 36.3°F2.4°C 81% 1.0 mph SW1.6 kmh SW 6.0 mph9.7 kmh 29.43 in996.6 mb 0.00 in0.0 mm 0.00 in0.0 mm 0.21 in5.3 mm
04:50 PM 41.5°F5.3°C 36.1°F2.3°C 81% 1.0 mph SSW1.6 kmh SSW 3.0 mph4.8 kmh 29.43 in996.6 mb 0.00 in0.0 mm 0.00 in0.0 mm 0.21 in5.3 mm
04:55 PM 41.4°F5.2°C 36.5°F2.5°C 83% Calm Calm 2.0 mph3.2 kmh 29.43 in996.6 mb 0.00 in0.0 mm 0.00 in0.0 mm 0.21 in5.3 mm
05:00 PM 41.4°F5.2°C 36.0°F2.2°C 81% 1.0 mph SSW1.6 kmh SSW 3.0 mph4.8 kmh 29.43 in996.6 mb 0.00 in0.0 mm 0.00 in0.0 mm 0.21 in5.3 mm
05:05 PM 41.2°F5.1°C 35.8°F2.1°C 81% 1.0 mph SSW1.6 kmh SSW 3.0 mph4.8 kmh 29.43 in996.6 mb 0.00 in0.0 mm 0.00 in0.0 mm 0.21 in5.3 mm
05:10 PM 41.2°F5.1°C 35.8°F2.1°C 81% 2.0 mph SSW3.2 kmh SSW 7.0 mph11.3 kmh 29.43 in996.6 mb 0.00 in0.0 mm 0.00 in0.0 mm 0.21 in5.3 mm
05:15 PM 41.2°F5.1°C 36.1°F2.3°C 82% Calm Calm 2.0 mph3.2 kmh 29.43 in996.6 mb 0.00 in0.0 mm 0.00 in0.0 mm 0.21 in5.3 mm
05:20 PM 41.2°F5.1°C 36.1°F2.3°C 82% Calm Calm -- 29.43 in996.6 mb 0.00 in0.0 mm 0.00 in0.0 mm 0.21 in5.3 mm
05:25 PM 41.2°F5.1°C 36.1°F2.3°C 82% 1.0 mph SW1.6 kmh SW 4.0 mph6.4 kmh 29.43 in996.6 mb 0.00 in0.0 mm 0.00 in0.0 mm 0.21 in5.3 mm
05:30 PM 41.2°F5.1°C 36.1°F2.3°C 82% Calm Calm 1.0 mph1.6 kmh 29.43 in996.6 mb 0.00 in0.0 mm 0.00 in0.0 mm 0.21 in5.3 mm
05:35 PM 40.8°F4.9°C 35.8°F2.1°C 82% Calm Calm 3.0 mph4.8 kmh 29.43 in996.6 mb 0.00 in0.0 mm 0.00 in0.0 mm 0.21 in5.3 mm
05:40 PM 40.8°F4.9°C 36.1°F2.3°C 83% 1.0 mph SW1.6 kmh SW 3.0 mph4.8 kmh 29.43 in996.6 mb 0.00 in0.0 mm 0.00 in0.0 mm 0.21 in5.3 mm
05:45 PM 40.8°F4.9°C 36.1°F2.3°C 83% 1.0 mph SW1.6 kmh SW 3.0 mph4.8 kmh 29.43 in996.6 mb 0.00 in0.0 mm 0.00 in0.0 mm 0.21 in5.3 mm
05:50 PM 40.6°F4.8°C 36.1°F2.3°C 84% Calm Calm -- 29.43 in996.6 mb 0.00 in0.0 mm 0.00 in0.0 mm 0.21 in5.3 mm
05:55 PM 40.6°F4.8°C 36.1°F2.3°C 84% Calm Calm -- 29.43 in996.6 mb 0.00 in0.0 mm 0.00 in0.0 mm 0.21 in5.3 mm
06:00 PM 40.5°F4.7°C 36.3°F2.4°C 85% Calm Calm -- 29.43 in996.6 mb 0.00 in0.0 mm 0.00 in0.0 mm 0.21 in5.3 mm
06:05 PM 40.5°F4.7°C 36.3°F2.4°C 85% Calm Calm -- 29.43 in996.6 mb 0.00 in0.0 mm 0.00 in0.0 mm 0.21 in5.3 mm
06:10 PM 40.5°F4.7°C 36.3°F2.4°C 85% Calm Calm -- 29.43 in996.6 mb 0.00 in0.0 mm 0.00 in0.0 mm 0.21 in5.3 mm
06:15 PM 40.3°F4.6°C 36.5°F2.5°C 86% Calm Calm -- 29.43 in996.6 mb 0.00 in0.0 mm 0.00 in0.0 mm 0.21 in5.3 mm
06:20 PM 40.1°F4.5°C 36.3°F2.4°C 86% Calm Calm -- 29.43 in996.6 mb 0.00 in0.0 mm 0.00 in0.0 mm 0.21 in5.3 mm
06:25 PM 39.9°F4.4°C 36.1°F2.3°C 86% Calm Calm 2.0 mph3.2 kmh 29.43 in996.6 mb 0.00 in0.0 mm 0.00 in0.0 mm 0.21 in5.3 mm
06:30 PM 39.9°F4.4°C 36.1°F2.3°C 86% 4.0 mph SW6.4 kmh SW 8.0 mph12.9 kmh 29.43 in996.6 mb 0.00 in0.0 mm 0.00 in0.0 mm 0.21 in5.3 mm
06:35 PM 39.9°F4.4°C 36.1°F2.3°C 86% 1.0 mph SW1.6 kmh SW 4.0 mph6.4 kmh 29.43 in996.6 mb 0.00 in0.0 mm 0.00 in0.0 mm 0.21 in5.3 mm
06:40 PM 39.7°F4.3°C 36.1°F2.3°C 87% 1.0 mph SW1.6 kmh SW 7.0 mph11.3 kmh 29.43 in996.6 mb 0.00 in0.0 mm 0.00 in0.0 mm 0.21 in5.3 mm
06:45 PM 39.7°F4.3°C 36.1°F2.3°C 87% 1.0 mph SSW1.6 kmh SSW 5.0 mph8.0 kmh 29.43 in996.6 mb 0.00 in0.0 mm 0.00 in0.0 mm 0.21 in5.3 mm
06:50 PM 39.7°F4.3°C 36.1°F2.3°C 87% 1.0 mph SSW1.6 kmh SSW 6.0 mph9.7 kmh 29.43 in996.6 mb 0.00 in0.0 mm 0.00 in0.0 mm 0.21 in5.3 mm
06:55 PM 39.7°F4.3°C 36.1°F2.3°C 87% 1.0 mph SSW1.6 kmh SSW 4.0 mph6.4 kmh 29.43 in996.6 mb 0.00 in0.0 mm 0.00 in0.0 mm 0.21 in5.3 mm
07:00 PM 39.7°F4.3°C 36.1°F2.3°C 87% 1.0 mph SSW1.6 kmh SSW 5.0 mph8.0 kmh 29.43 in996.6 mb 0.00 in0.0 mm 0.00 in0.0 mm 0.21 in5.3 mm
07:05 PM 39.7°F4.3°C 36.1°F2.3°C 87% Calm Calm 4.0 mph6.4 kmh 29.43 in996.6 mb 0.00 in0.0 mm 0.00 in0.0 mm 0.21 in5.3 mm
07:10 PM 39.7°F4.3°C 36.1°F2.3°C 87% 1.0 mph SSW1.6 kmh SSW 4.0 mph6.4 kmh 29.43 in996.6 mb 0.00 in0.0 mm 0.00 in0.0 mm 0.21 in5.3 mm
07:15 PM 39.7°F4.3°C 36.1°F2.3°C 87% 1.0 mph SW1.6 kmh SW 6.0 mph9.7 kmh 29.43 in996.6 mb 0.00 in0.0 mm 0.00 in0.0 mm 0.21 in5.3 mm
07:20 PM 39.7°F4.3°C 36.1°F2.3°C 87% 1.0 mph SSW1.6 kmh SSW 4.0 mph6.4 kmh 29.43 in996.6 mb 0.00 in0.0 mm 0.00 in0.0 mm 0.21 in5.3 mm
07:25 PM 39.7°F4.3°C 36.0°F2.2°C 86% 1.0 mph SW1.6 kmh SW 3.0 mph4.8 kmh 29.43 in996.6 mb 0.00 in0.0 mm 0.00 in0.0 mm 0.21 in5.3 mm
07:30 PM 39.7°F4.3°C 36.0°F2.2°C 86% 2.0 mph SSW3.2 kmh SSW 5.0 mph8.0 kmh 29.43 in996.6 mb 0.00 in0.0 mm 0.00 in0.0 mm 0.21 in5.3 mm
07:35 PM 39.7°F4.3°C 36.0°F2.2°C 86% 3.0 mph SSW4.8 kmh SSW 7.0 mph11.3 kmh 29.43 in996.6 mb 0.00 in0.0 mm 0.00 in0.0 mm 0.21 in5.3 mm
07:40 PM 39.6°F4.2°C 35.8°F2.1°C 86% 2.0 mph SW3.2 kmh SW 6.0 mph9.7 kmh 29.43 in996.6 mb 0.00 in0.0 mm 0.00 in0.0 mm 0.21 in5.3 mm
07:45 PM 39.6°F4.2°C 35.8°F2.1°C 86% 2.0 mph SW3.2 kmh SW 7.0 mph11.3 kmh 29.43 in996.6 mb 0.00 in0.0 mm 0.00 in0.0 mm 0.21 in5.3 mm
07:50 PM 39.4°F4.1°C 35.6°F2.0°C 86% 2.0 mph SW3.2 kmh SW 6.0 mph9.7 kmh 29.42 in996.3 mb 0.00 in0.0 mm 0.00 in0.0 mm 0.21 in5.3 mm
07:55 PM 39.4°F4.1°C 35.8°F2.1°C 87% 1.0 mph SW1.6 kmh SW 6.0 mph9.7 kmh 29.42 in996.3 mb 0.00 in0.0 mm 0.00 in0.0 mm 0.21 in5.3 mm
08:00 PM 39.2°F4.0°C 35.6°F2.0°C 87% Calm Calm 1.0 mph1.6 kmh 29.42 in996.3 mb 0.00 in0.0 mm 0.00 in0.0 mm 0.21 in5.3 mm
08:05 PM 39.2°F4.0°C 36.0°F2.2°C 88% Calm Calm -- 29.42 in996.3 mb 0.00 in0.0 mm 0.00 in0.0 mm 0.21 in5.3 mm
08:10 PM 39.2°F4.0°C 36.0°F2.2°C 88% Calm Calm -- 29.42 in996.3 mb 0.00 in0.0 mm 0.00 in0.0 mm 0.21 in5.3 mm
08:15 PM 39.4°F4.1°C 36.1°F2.3°C 88% Calm Calm -- 29.43 in996.6 mb 0.00 in0.0 mm 0.00 in0.0 mm 0.21 in5.3 mm
08:20 PM 39.4°F4.1°C 36.1°F2.3°C 88% Calm Calm 2.0 mph3.2 kmh 29.43 in996.6 mb 0.00 in0.0 mm 0.00 in0.0 mm 0.21 in5.3 mm
08:25 PM 39.4°F4.1°C 36.1°F2.3°C 88% 1.0 mph SSW1.6 kmh SSW 6.0 mph9.7 kmh 29.42 in996.3 mb 0.00 in0.0 mm 0.00 in0.0 mm 0.21 in5.3 mm
08:30 PM 39.4°F4.1°C 36.1°F2.3°C 88% 2.0 mph SSW3.2 kmh SSW 6.0 mph9.7 kmh 29.42 in996.3 mb 0.00 in0.0 mm 0.00 in0.0 mm 0.21 in5.3 mm
08:35 PM 39.2°F4.0°C 35.6°F2.0°C 87% 3.0 mph SW4.8 kmh SW 7.0 mph11.3 kmh 29.42 in996.3 mb 0.00 in0.0 mm 0.00 in0.0 mm 0.21 in5.3 mm
08:40 PM 38.8°F3.8°C 35.1°F1.7°C 86% 4.0 mph SW6.4 kmh SW 9.0 mph14.5 kmh 29.42 in996.3 mb 0.00 in0.0 mm 0.00 in0.0 mm 0.21 in5.3 mm
08:45 PM 38.5°F3.6°C 34.7°F1.5°C 86% 2.0 mph SW3.2 kmh SW 7.0 mph11.3 kmh 29.42 in996.3 mb 0.00 in0.0 mm 0.00 in0.0 mm 0.21 in5.3 mm
08:50 PM 38.5°F3.6°C 34.7°F1.5°C 86% 2.0 mph SW3.2 kmh SW 6.0 mph9.7 kmh 29.42 in996.3 mb 0.00 in0.0 mm 0.00 in0.0 mm 0.21 in5.3 mm
08:55 PM 38.5°F3.6°C 34.7°F1.5°C 86% 1.0 mph SSW1.6 kmh SSW 3.0 mph4.8 kmh 29.42 in996.3 mb 0.00 in0.0 mm 0.00 in0.0 mm 0.21 in5.3 mm
09:00 PM 38.5°F3.6°C 34.9°F1.6°C 87% Calm Calm -- 29.42 in996.3 mb 0.00 in0.0 mm 0.00 in0.0 mm 0.21 in5.3 mm
09:05 PM 38.3°F3.5°C 34.7°F1.5°C 87% Calm Calm -- 29.42 in996.3 mb 0.00 in0.0 mm 0.00 in0.0 mm 0.21 in5.3 mm
09:10 PM 38.3°F3.5°C 34.7°F1.5°C 87% Calm Calm -- 29.41 in995.9 mb 0.00 in0.0 mm 0.00 in0.0 mm 0.21 in5.3 mm
09:15 PM 38.3°F3.5°C 34.7°F1.5°C 87% Calm Calm -- 29.41 in995.9 mb 0.00 in0.0 mm 0.00 in0.0 mm 0.21 in5.3 mm
09:20 PM 38.1°F3.4°C 34.5°F1.4°C 87% Calm Calm -- 29.41 in995.9 mb 0.00 in0.0 mm 0.00 in0.0 mm 0.21 in5.3 mm
09:25 PM 37.9°F3.3°C 34.3°F1.3°C 87% Calm Calm -- 29.41 in995.9 mb 0.00 in0.0 mm 0.00 in0.0 mm 0.21 in5.3 mm
09:30 PM 37.9°F3.3°C 34.3°F1.3°C 87% Calm Calm -- 29.41 in995.9 mb 0.00 in0.0 mm 0.00 in0.0 mm 0.21 in5.3 mm
09:35 PM 37.9°F3.3°C 34.3°F1.3°C 87% Calm Calm -- 29.41 in995.9 mb 0.00 in0.0 mm 0.00 in0.0 mm 0.21 in5.3 mm
09:40 PM 37.8°F3.2°C 34.2°F1.2°C 87% Calm Calm -- 29.41 in995.9 mb 0.00 in0.0 mm 0.00 in0.0 mm 0.21 in5.3 mm
09:45 PM 37.6°F3.1°C 34.0°F1.1°C 87% Calm Calm -- 29.40 in995.6 mb 0.00 in0.0 mm 0.00 in0.0 mm 0.21 in5.3 mm
09:50 PM 37.6°F3.1°C 34.0°F1.1°C 87% Calm Calm -- 29.40 in995.6 mb 0.00 in0.0 mm 0.00 in0.0 mm 0.21 in5.3 mm
09:55 PM 37.6°F3.1°C 34.0°F1.1°C 87% Calm Calm -- 29.40 in995.6 mb 0.00 in0.0 mm 0.00 in0.0 mm 0.21 in5.3 mm
10:00 PM 37.2°F2.9°C 33.6°F0.9°C 87% Calm Calm -- 29.40 in995.6 mb 0.00 in0.0 mm 0.00 in0.0 mm 0.21 in5.3 mm
10:05 PM 37.2°F2.9°C 34.0°F1.1°C 88% Calm Calm -- 29.40 in995.6 mb 0.00 in0.0 mm 0.00 in0.0 mm 0.21 in5.3 mm
10:10 PM 37.0°F2.8°C 33.8°F1.0°C 88% Calm Calm -- 29.40 in995.6 mb 0.00 in0.0 mm 0.00 in0.0 mm 0.21 in5.3 mm
10:15 PM 37.0°F2.8°C 33.8°F1.0°C 88% Calm Calm -- 29.40 in995.6 mb 0.00 in0.0 mm 0.00 in0.0 mm 0.21 in5.3 mm
10:20 PM 36.9°F2.7°C 33.6°F0.9°C 88% Calm Calm -- 29.40 in995.6 mb 0.00 in0.0 mm 0.00 in0.0 mm 0.21 in5.3 mm
10:25 PM 36.9°F2.7°C 33.6°F0.9°C 88% Calm Calm -- 29.40 in995.6 mb 0.00 in0.0 mm 0.00 in0.0 mm 0.21 in5.3 mm
10:30 PM 36.9°F2.7°C 33.6°F0.9°C 88% Calm Calm -- 29.39 in995.3 mb 0.00 in0.0 mm 0.00 in0.0 mm 0.21 in5.3 mm
10:35 PM 36.9°F2.7°C 34.0°F1.1°C 89% Calm Calm -- 29.39 in995.3 mb 0.00 in0.0 mm 0.00 in0.0 mm 0.21 in5.3 mm
10:40 PM 36.9°F2.7°C 34.0°F1.1°C 89% Calm Calm -- 29.39 in995.3 mb 0.00 in0.0 mm 0.00 in0.0 mm 0.21 in5.3 mm
10:45 PM 37.0°F2.8°C 34.2°F1.2°C 89% Calm Calm -- 29.39 in995.3 mb 0.00 in0.0 mm 0.00 in0.0 mm 0.21 in5.3 mm
10:50 PM 37.0°F2.8°C 34.2°F1.2°C 89% Calm Calm -- 29.39 in995.3 mb 0.00 in0.0 mm 0.00 in0.0 mm 0.21 in5.3 mm
10:55 PM 37.2°F2.9°C 34.3°F1.3°C 89% Calm Calm -- 29.39 in995.3 mb 0.00 in0.0 mm 0.00 in0.0 mm 0.21 in5.3 mm
11:00 PM 37.2°F2.9°C 34.0°F1.1°C 88% Calm Calm -- 29.39 in995.3 mb 0.00 in0.0 mm 0.00 in0.0 mm 0.13 in3.3 mm
11:05 PM 37.4°F3.0°C 34.2°F1.2°C 88% Calm Calm -- 29.38 in994.9 mb 0.00 in0.0 mm 0.00 in0.0 mm 0.13 in3.3 mm
11:10 PM 37.4°F3.0°C 34.2°F1.2°C 88% Calm Calm -- 29.38 in994.9 mb 0.00 in0.0 mm 0.00 in0.0 mm 0.13 in3.3 mm
11:15 PM 37.6°F3.1°C 34.3°F1.3°C 88% Calm Calm -- 29.38 in994.9 mb 0.00 in0.0 mm 0.00 in0.0 mm 0.13 in3.3 mm
11:20 PM 37.6°F3.1°C 34.3°F1.3°C 88% Calm Calm -- 29.38 in994.9 mb 0.00 in0.0 mm 0.00 in0.0 mm 0.13 in3.3 mm
11:25 PM 37.6°F3.1°C 34.3°F1.3°C 88% Calm Calm -- 29.38 in994.9 mb 0.00 in0.0 mm 0.00 in0.0 mm 0.13 in3.3 mm
11:30 PM 37.8°F3.2°C 34.5°F1.4°C 88% Calm Calm -- 29.38 in994.9 mb 0.00 in0.0 mm 0.00 in0.0 mm 0.13 in3.3 mm
11:35 PM 37.9°F3.3°C 34.7°F1.5°C 88% Calm Calm -- 29.38 in994.9 mb 0.00 in0.0 mm 0.00 in0.0 mm 0.13 in3.3 mm
11:40 PM 37.9°F3.3°C 34.7°F1.5°C 88% Calm Calm -- 29.38 in994.9 mb 0.00 in0.0 mm 0.00 in0.0 mm 0.13 in3.3 mm
11:45 PM 37.9°F3.3°C 34.7°F1.5°C 88% Calm Calm -- 29.37 in994.6 mb 0.00 in0.0 mm 0.00 in0.0 mm 0.13 in3.3 mm
11:50 PM 37.9°F3.3°C 34.7°F1.5°C 88% Calm Calm -- 29.37 in994.6 mb 0.00 in0.0 mm 0.00 in0.0 mm 0.13 in3.3 mm
11:55 PM 37.9°F3.3°C 34.7°F1.5°C 88% Calm Calm 1.0 mph1.6 kmh 29.36 in994.2 mb 0.00 in0.0 mm 0.00 in0.0 mm 0.13 in3.3 mm